Location: Bli��� Lhota
(48.7570°N, 14.0120°E)
Time: 09:29:14
(UTC+00:00)

SJ 16-02 - Pass Details

Date: 18 September 2020
Orbit: 606 x 616 km, 75.0° (Epoch: 28 October)

Event Time Altitude Azimuth Distance (km) Brightness Sun altitude
Rises 17:58:20 0° 215° (SW) 2,854 5.1 -8.8°
Reaches altitude 10° 18:00:38 10° 221° (SW) 1,954 4.3 -9.1°
Maximum altitude 18:04:51 48° 296° (WNW) 802 2.5 -9.8°
Drops below altitude 10° 18:09:06 10° 12° (NNE) 1,967 4.0 -10.5°
Sets 18:11:25 0° 18° (NNE) 2,876 4.8 -10.9°
